Погода в Игнашино

Россия / Амурская область     53°27′43″N   122°24′05″E
темп.,
°C
ветер,
м/с
пор.,
м/с
влажн.,
%
обл.,
%
осадки,
мм/ч
давл.,
гПа
погр.,
м
26 февраля, пт
пт2600:00−25з12952 0.0 103220
03:00−27з11961 0.0 103319
06:00−28з12960 0.0 103519
09:00−26зсз119617 0.0 103531
12:00−19всв118767 0.0 1033276
15:00−16в238283 0.0 1030451
18:00−17в2591100 0.0 1029225
21:00−18всв31094100 0.0 1029340
27 февраля, сб
сб2700:00−18в41090100 0.0 1026404
03:00−18в51296100 0.7 1022525
06:00−17в61295100 1.4 1017686
09:00−15в61195100 2.8 1014749
12:00−14всв5894100 2.4 1012630
15:00−14св4591100 3.2 1012709
18:00−17ссз2593100 0.3 1015219
21:00−22зюз129472 0.3 101920
28 февраля, вс
вс2800:00−23зсз249236 0.0 102170
03:00−25з228218 0.0 102520
06:00−25зсз3683100 0.0 1028118
09:00−23з1277100 0.0 103133
12:00−19сз366699 0.0 10311170
15:00−17сз246699 0.0 10311449
18:00−20зюз1181100 0.0 103320
21:00−23с1399100 0.3 103697
1 марта, пн
пн100:00−25зюз1196100 0.3 103819
03:00−28зюз1195100 0.3 104019
06:00−31з1194100 0.0 104019
09:00−30з119269 0.0 104162
12:00−24з248625 0.0 1037448
15:00−20зсз358037 0.0 1035784
18:00−22зюз228238 0.0 103426
21:00−27зюз128220 0.0 103619
2 марта, вт
вт200:00−29з008870 0.0 103619
03:00−31всв119684 0.0 103519
06:00−32св119999 0.0 103519
09:00−30св1198100 0.0 103453
12:00−23всв1190100 0.0 1030358
15:00−19всв1185100 0.1 1027535
18:00−23в1190100 0.0 102620
21:00−29в019757 0.0 102819